Simultaneous Nadir Overpasses (SNOs) Predictions

Prediction of SNOs between FY3D and AQUA Satellite Orbit:

Table of predicted SNOs for the next 14.0 days since TLE Epoch: 12/31/2021
Index Date (FY3D) Time (FY3D) Lat,Lon (FY3D) SZA (FY3D ) Date (AQUA) Time (AQUA) Lat,Lon (AQUA) SZA (AQUA ) Distance(km) Time Diff (sec)
1 01/01/2022 22:42:49 -73.22, 14.57 83.86 01/01/2022 22:44:01 -73.23, 14.51 83.86 1.95 72
2 01/01/2022 23:32:55 71.17,-174.09 94.02 01/01/2022 23:32:50 71.18,-174.13 94.02 1.68 5
3 01/04/2022 14:10:06 73.56, -37.96 96.25 01/04/2022 14:11:11 73.55, -37.90 96.23 2.04 65
4 01/04/2022 15:00:00 -70.94, 134.54 86.48 01/04/2022 14:59:48 -70.95, 134.47 86.47 2.47 12
5 01/07/2022 05:37:09 -73.22, -88.98 84.41 01/07/2022 05:38:07 -73.22, -88.98 84.42 0.12 58
6 01/07/2022 06:27:16 71.23, 82.26 93.51 01/07/2022 06:26:57 71.23, 82.27 93.51 0.32 19
7 01/09/2022 21:04:20 73.32,-140.97 95.34 01/09/2022 21:05:11 73.32,-140.92 95.33 1.67 51
8 01/09/2022 21:54:28 -71.41, 30.17 86.66 01/09/2022 21:54:01 -71.41, 30.24 86.68 2.67 27
9 01/12/2022 12:31:18 -72.74, 168.54 85.69 01/12/2022 12:32:02 -72.75, 168.46 85.68 2.68 44



Historial Predications of SNOs between FY3D and AQUA
